Rbgn^[z[y[W
メイン
   新天体発見情報
     Comet C/2020 K8 (Catalina-ATLAS)
投稿するにはまず登録を

スレッド表示 | 新しいものから 前のトピック | 次のトピック | 下へ
投稿者 スレッド
佐藤裕久
投稿日時: 2020-6-28 14:25
モデレータ
登録日: 2005-6-12
居住地: 日本
投稿: 2111
オンライン
Comet C/2020 K8 (Catalina-ATLAS)

5月25日、28日と29日に、Catalina Skyサーベイの0.68-m Schmidt望遠鏡と6月7日にハワイ 
Haleakalaにある小惑星地球衝突最終警報システム Asteroid Terrestrial-impact Last Alert
 System (ATLAS)調査プログラムのコースに0.5-m f/2 Schmidt反射望遠鏡で得たCCD画像
から独立して小惑星状天体が発見された。
この天体は小惑星センターのPCCP webpageに公表後、多くのCCD位置観測者によって彗星状で
あることがわかった。
E. Guido (Castellammare di Stabia, イタリアの報告では、M. Rocchetto, E. Bryssinck, 
M. Fulle, G. Milani, C. Nassef, G. Saviniと彼が、6月9.4日UT、0.6-m f/6.5アストログラフ,
El Sauce, チリ、望遠鏡ライブ: フィルターなし60秒露出29枚のスタックで、拡散した約10"の
不規則なコマが見えた。測定した光度は19.1-19.2等)や佐藤英貴氏(東京都文京区, 6月11.4日,
60秒露出14枚のスタック, 0.43-m f/6.8 アストログラフ, Mayhill近郊:強く集光した8" の
丸いコマが見えるが尾はない。5".7の円形範囲で測定した光度は18.8等であった)らCCD位置観測
者によって彗星状と観測された。

彗星機能の追加報告は次の通り:

OC   Date        Reporter           Coma    Tail    PA          Exposures
X02  2020-06-09  E. Guido            10"                         29x60s
U69  2020-06-09  E. Guido            15"                         24x57s
H06  2020-06-10  R. Ligustri         25"                         11x120s
V06  2020-06-11  G. J. Leonard       12"                          4x30s
H06  2020-06-11  H. Sato              8"                         14x60s
L01  2020-06-12  K. Korlevic         13"
850  2020-06-12  D. Durig            10"                         150x10s

発見位置は次のとおり、

     2020 UT             R.A. (2000) Decl.       Mag.   Observer
     May  25.43424   22 50 45.88   +15 31 37.1   19.3   Catalina
          25.43832   22 50 46.29   +15 31 40.6   19.6     "
          25.44238   22 50 46.68   +15 31 43.8   19.2     "
          25.44645   22 50 47.12   +15 31 45.9   19.1     "
          28.44403   22 55 43.96   +16 08 30.8   19.3     "
          28.44933   22 55 44.60   +16 08 36.2   19.0     "
          28.45462   22 55 45.08   +16 08 40.2   19.1     "
          28.45992   22 55 45.58   +16 08 44.8   19.2     "
          29.40536   22 57 21.20   +16 20 32.6   18.8     "
          29.41066   22 57 21.80   +16 20 35.8   19.4     "
          29.41595   22 57 22.26   +16 20 39.8   19.2     "
          29.42125   22 57 22.78   +16 20 44.2   18.9     "
     June  7.56494   23 13 40.17   +18 20 27.5   18.7   ATLAS
           7.57711   23 13 41.58   +18 20 37.3   18.6     "
           7.60122   23 13 44.37   +18 20 57.3   18.6     "
           7.60675   23 13 44.94   +18 21 03.2   18.6     "

MPCの暫定放物線軌道要素と位置推算表は次のとおり、

Orbital elements:
    C/2020 K8 (Catalina-ATLAS)                                                  
T 2020 Sept. 14.49884 TT                                Rudenko                 
q   0.4741397            (2000.0)            P               Q                  
                   Peri.  260.11201     +0.14973679     -0.98863237             
                   Node   181.49464     +0.97944400     +0.14643692             
e   1.0            Incl.   31.42300     -0.13516044     -0.03409195             
From 64 observations 2020 May 25-June 12.                                       
                                                                                
Ephemeris:
Date    TT    R. A. (2000) Decl.     Delta      r    Elong.  Phase   m1
2020 05 13    22 31 28.4 +13 09 13   2.5217  2.3602    69.2    23.6  20.0
...
2020 05 28    22 54 59.3 +16 03 03   2.1446  2.1441    76.3    27.3  19.3
...
2020 06 05    23 08 54.7 +17 45 50   1.9437  2.0256    79.7    29.5  18.9
...
2020 06 11    23 20 18.0 +19 08 13   1.7941  1.9351    82.0    31.3  18.6
2020 06 12    23 22 17.8 +19 22 25   1.7693  1.9199    82.4    31.6  18.5
2020 06 13    23 24 19.4 +19 36 47   1.7446  1.9047    82.7    31.9  18.4
...
2020 06 19    23 37 14.0 +21 06 01   1.5972  1.8122    84.7    33.9  18.1
...
2020 06 27    23 57 00.7 +23 13 46   1.4045  1.6866    86.8    37.0  17.6
...
2020 07 12    00 47 38.4 +27 39 42   1.0629  1.4430    87.9    44.7  16.4

(MPEC 2020-L46、CBET 4796)

スレッド表示 | 新しいものから 前のトピック | 次のトピック | トップ

投稿するにはまず登録を
 
© 1999 Tsutomu Seki.